Regional Weather Roundup
Issued by NWS

Home | Current Version | Previous Version | Graphics & Text | Print | Product List | Glossary On
Versions: 1 2 3 4 5 6 7 8 9 10 11 12 13 14 15 16 17 18 19 20 21 22 23 24 25 26 27 28 29 30 31 32 33 34 35 36 37 38 39 40 41 42 43 44 45 46 47 48 49 50
000
ASUS45 KCYS 041510
RWRWY

WYOMING REGIONAL WEATHER ROUNDUP
NATIONAL WEATHER SERVICE CHEYENNE WY
800 AM MST WED MAR 04 2015

NOTE:  "FAIR" INDICATES FEW OR NO CLOUDS BELOW 12,000 FEET
WITH NO SIGNIFICANT WEATHER AND/OR OBSTRUCTIONS TO VISIBILITY.

WYZ001-041600-
YELLOWSTONE NATIONAL PARK

CITY           SKY/WX    TMP DP  RH WIND       PRES   REMARKS
LK YELLOWSTONE   N/A    -16 -21  78 CALM      30.01R
W YELLOWSTONE  NOT AVBL

$$
WYZ002>013-054>058-071-098>099-041600-
NORTHERN WYOMING

CITY           SKY/WX    TMP DP  RH WIND       PRES   REMARKS
JACKSON        SUNNY     -9 -11  92 N12       30.07R WCI -29
CODY           FAIR       3   0  85 N3        30.10R
GREYBULL       FAIR       1  -2  87 CALM      30.21R
WORLAND        FAIR       3  -4  72 S5        30.18R WCI  -6
SHERIDAN       CLOUDY     6   0  76 CALM      30.17R
BUFFALO        PTSUNNY    6  -4  63 N3        30.09R
GILLETTE       FAIR       5  -6  60 W7        30.13R WCI  -7
HULETT         FAIR       5   0  78 W8        30.12R WCI  -8
NEWCASTLE      FAIR       7  -2  66 NW10      30.14R WCI  -8

$$
WYZ014>020-022>026-101>103-041600-
CENTRAL WYOMING

CITY           SKY/WX    TMP DP  RH WIND       PRES   REMARKS
BIG PINEY      FAIR       4  -4  69 N5        30.02R WCI  -5
PINEDALE       FAIR      -8 -11  84 CALM      30.03R
DUBOIS         FAIR       1  -4  78 NW15      29.95R WCI -18
LANDER         FAIR      -2  -9  72 CALM      30.08R
RIVERTON       FAIR      -4  -9  79 N5        30.10R WCI -15
CASPER         FAIR      -1  -6  79 SW13      30.10R WCI -19
DOUGLAS        FAIR      -5 -10  79 NW9       30.12R WCI -22

$$
WYZ021-027>030-104>119-041600-
SOUTHERN WYOMING

CITY           SKY/WX    TMP DP  RH WIND       PRES   REMARKS
EVANSTON       FAIR      12   9  87 W6        30.01R WCI   3
FORT BRIDGER   CLOUDY    14  11  90 NW7       30.03R WCI   4
ROCK SPRINGS   LGT SNOW   2  -2  83 CALM      30.03R FOG
DIXON          LGT SNOW   5   0  82 CALM      30.06R
RAWLINS        FAIR     -12 -16  82 CALM      30.02R
SARATOGA       CLOUDY    -8  -9  92 MISG      30.00R
LARAMIE        FAIR      -2  -5  87 W3        29.96R
CHEYENNE       FAIR       7  -3  64 W7        30.04R WCI  -5
TORRINGTON     FAIR       8   0  69 NW9       30.15R WCI  -5
PINE BLUFFS    FAIR      10   5  79 SW9       30.12R WCI  -2

$$


USA.gov is the U.S. government's official web portal to all federal, state and local government web resources and services.